Location: Jackson Park
(37.2862°N, 79.9123°W)
Time: 20:45:33
(UTC+00:00)

Vanguard 2 Rocket - Pass Details

Date: 16 May 2026
Orbit: 553 x 3286 km, 32.9° (Epoch: 6 June)

Event Time Altitude Azimuth Distance (km) Brightness Sun altitude
Rises 16:26:54 0° 248° (WSW) 5,087 10.7 69.0°
Reaches altitude 10° 16:29:43 10° 246° (WSW) 4,394 10.5 69.3°
Maximum altitude 16:42:53 71° 166° (SSE) 2,874 13.1 70.5°
Drops below altitude 10° 17:02:32 10° 88° (E) 6,233 11.3 71.7°
Sets 17:07:26 0° 86° (E) 7,237 11.5 71.8°
